Location: Franzen
(48.6167°N, 15.3833°E)
Time: 22:44:55
(UTC+00:00)

Transit 2A - Pass Details

Date: 09 August 2021
Orbit: 594 x 964 km, 66.7° (Epoch: 26 September)

Event Time Altitude Azimuth Distance (km) Brightness Sun altitude
Rises 04:06:03 0° 227° (SW) 2,858 8.4 2.6°
Reaches altitude 10° 04:08:16 10° 232° (SW) 1,984 7.6 2.9°
Maximum altitude 04:12:38 55° 311° (NW) 791 6.0 3.6°
Drops below altitude 10° 04:17:25 10° 29° (NNE) 2,169 9.2 4.3°
Sets 04:19:56 0° 34° (NE) 3,152 10.1 4.7°
